LTR55S ENBR-ENQA

Flight info

Callsign LTR55S
Flight time 0h 22m
Altitude 2000
Route ADADI ARPIX AMKUX
Aircraft A139/L-SDGRWY/S

Departure

Time 2026-04-27 16:28
Airport Bergen Airport, Flesland (ENBR)

Arrival

Time 2026-04-27 16:50
Airport Troll A Platform (ENQA)
Time Latitude Longitude Altitude Speed Heading
2026-04-27 16:20 60.29154 5.22429 158 ft 0 kts 351°
2026-04-27 16:23 60.29158 5.22425 158 ft 2 kts 314°
2026-04-27 16:24 60.29156 5.22400 158 ft 1 kts 245°
2026-04-27 16:24 60.29129 5.22331 158 ft 5 kts 179°
2026-04-27 16:25 60.29071 5.22267 158 ft 4 kts 244°
2026-04-27 16:25 60.29017 5.22246 159 ft 5 kts 173°
2026-04-27 16:26 60.28929 5.22246 159 ft 6 kts 226°
2026-04-27 16:26 60.28912 5.22105 158 ft 6 kts 261°
2026-04-27 16:27 60.28915 5.21957 156 ft 3 kts 352°
2026-04-27 16:27 60.29419 5.21807 605 ft 97 kts 348°
2026-04-27 16:28 60.30872 5.20265 1076 ft 130 kts 314°
2026-04-27 16:28 60.31991 5.17543 1820 ft 126 kts 311°
2026-04-27 16:29 60.33540 5.13172 2038 ft 129 kts 294°
2026-04-27 16:30 60.34246 5.09828 2003 ft 130 kts 294°
2026-04-27 16:30 60.34952 5.06487 1961 ft 132 kts 294°
2026-04-27 16:31 60.36126 5.00956 2042 ft 145 kts 294°
2026-04-27 16:31 60.36924 4.97194 2026 ft 146 kts 294°
2026-04-27 16:32 60.37716 4.93441 2003 ft 146 kts 294°
2026-04-27 16:32 60.37906 4.91417 2000 ft 147 kts 278°
2026-04-27 16:33 60.38170 4.87316 2013 ft 147 kts 278°
2026-04-27 16:33 60.38393 4.85313 2004 ft 148 kts 281°
2026-04-27 16:33 60.38546 4.83292 2034 ft 146 kts 280°
2026-04-27 16:33 60.38942 4.81429 2009 ft 144 kts 312°
2026-04-27 16:34 60.39516 4.79782 2010 ft 144 kts 306°
2026-04-27 16:34 60.40018 4.78036 2010 ft 145 kts 302°
2026-04-27 16:34 60.40484 4.76236 2015 ft 144 kts 300°
2026-04-27 16:34 60.40938 4.74395 2013 ft 145 kts 300°
2026-04-27 16:35 60.41381 4.72576 2018 ft 144 kts 298°
2026-04-27 16:35 60.41817 4.70744 2009 ft 144 kts 297°
2026-04-27 16:35 60.42682 4.67079 1999 ft 145 kts 297°
2026-04-27 16:36 60.43118 4.65240 1997 ft 145 kts 296°
2026-04-27 16:36 60.43550 4.63392 1967 ft 148 kts 296°
2026-04-27 16:36 60.44000 4.61477 1934 ft 152 kts 296°
2026-04-27 16:36 60.44457 4.59526 1956 ft 155 kts 297°
2026-04-27 16:37 60.44918 4.57554 1999 ft 155 kts 297°
2026-04-27 16:37 60.45377 4.55587 2025 ft 155 kts 297°
2026-04-27 16:37 60.45838 4.53618 2025 ft 154 kts 297°
2026-04-27 16:37 60.46296 4.51662 2015 ft 154 kts 297°
2026-04-27 16:38 60.46753 4.49703 1997 ft 154 kts 298°
2026-04-27 16:38 60.47208 4.47746 1989 ft 154 kts 297°
2026-04-27 16:38 60.47669 4.45774 1988 ft 155 kts 298°
2026-04-27 16:38 60.48130 4.43791 1993 ft 155 kts 298°
2026-04-27 16:39 60.48589 4.41815 2001 ft 155 kts 297°
2026-04-27 16:39 60.49048 4.39843 2007 ft 155 kts 297°
2026-04-27 16:39 60.49505 4.37874 2011 ft 155 kts 297°
2026-04-27 16:39 60.49962 4.35902 2012 ft 154 kts 297°
2026-04-27 16:40 60.50418 4.33928 2007 ft 154 kts 297°
2026-04-27 16:40 60.50873 4.31966 2007 ft 154 kts 297°
2026-04-27 16:40 60.51326 4.30009 2005 ft 154 kts 297°
2026-04-27 16:40 60.51778 4.28053 2002 ft 154 kts 296°
2026-04-27 16:41 60.52232 4.26093 1998 ft 154 kts 296°
2026-04-27 16:41 60.52691 4.24099 1999 ft 154 kts 297°
2026-04-27 16:41 60.53143 4.22133 2001 ft 154 kts 297°
2026-04-27 16:41 60.53593 4.20181 2003 ft 154 kts 297°
2026-04-27 16:42 60.54047 4.18202 2008 ft 154 kts 297°
2026-04-27 16:42 60.54501 4.16235 2006 ft 154 kts 296°
2026-04-27 16:42 60.54953 4.14264 2007 ft 154 kts 297°
2026-04-27 16:42 60.55404 4.12298 2010 ft 154 kts 297°
2026-04-27 16:43 60.55853 4.10332 2008 ft 154 kts 297°
2026-04-27 16:43 60.56302 4.08371 2009 ft 153 kts 297°
2026-04-27 16:43 60.56756 4.06388 2005 ft 153 kts 296°
2026-04-27 16:43 60.57206 4.04418 1999 ft 154 kts 297°
2026-04-27 16:44 60.57649 4.02472 2002 ft 154 kts 298°
2026-04-27 16:44 60.58105 4.00480 2010 ft 153 kts 297°
2026-04-27 16:44 60.58550 3.98520 2011 ft 153 kts 297°
2026-04-27 16:44 60.58995 3.96573 1958 ft 153 kts 297°
2026-04-27 16:45 60.59420 3.94695 2008 ft 139 kts 296°
2026-04-27 16:45 60.59798 3.93005 1981 ft 126 kts 295°
2026-04-27 16:45 60.60157 3.91394 1831 ft 124 kts 296°
2026-04-27 16:45 60.60515 3.89812 1692 ft 124 kts 296°
2026-04-27 16:46 60.60875 3.88224 1577 ft 124 kts 296°
2026-04-27 16:46 60.61234 3.86642 1460 ft 122 kts 296°
2026-04-27 16:46 60.61586 3.85089 1302 ft 121 kts 296°
2026-04-27 16:46 60.61938 3.83522 1222 ft 122 kts 301°
2026-04-27 16:47 60.62304 3.81949 1219 ft 122 kts 300°
2026-04-27 16:47 60.62633 3.80478 1321 ft 105 kts 300°
2026-04-27 16:47 60.62931 3.79174 1244 ft 98 kts 298°
2026-04-27 16:47 60.63217 3.77921 1195 ft 98 kts 298°
2026-04-27 16:48 60.63649 3.76874 1198 ft 96 kts 323°
2026-04-27 16:48 60.64143 3.76013 1116 ft 92 kts 322°
2026-04-27 16:48 60.64628 3.75168 937 ft 93 kts 322°
2026-04-27 16:49 60.65539 3.73480 686 ft 74 kts 307°
2026-04-27 16:49 60.65588 3.72542 485 ft 62 kts 268°
2026-04-27 16:49 60.65423 3.71770 423 ft 62 kts 231°
2026-04-27 16:49 60.65039 3.71857 540 ft 69 kts 152°
2026-04-27 16:50 60.64639 3.72266 526 ft 69 kts 194°
2026-04-27 16:50 60.64502 3.71332 364 ft 74 kts 305°
2026-04-27 16:50 60.64806 3.71321 581 ft 47 kts 112°
2026-04-27 16:50 60.64688 3.71895 384 ft 41 kts 117°
2026-04-27 16:51 60.64565 3.72238 233 ft 20 kts 106°
2026-04-27 16:51 60.64513 3.72418 171 ft 12 kts 102°
2026-04-27 16:51 60.64500 3.72470 151 ft 0 kts 96°